sat.trackr.live / text

‹ back to catalog

STARLINK-36613

NORAD 67578 · 2026-016T

PAYLOAD ACTIVE UNKNOWN

§ Identity

Operator
Country
US
Launch date
2026-01-25
Launch site
AFWTR
Launch vehicle
Mass (kg)
RCS (m²)

Purposes: comms

External: N2YO · Heavens-Above · Gunter

§ Orbital elements

Epoch: 2026-09-18T03:18:16.785792Z

Period
93.91 min
Inclination
97.2855°
Eccentricity
0.0000476
Mean motion
15.33427895 rev/d
Perigee alt
465.3 km
Apogee alt
465.9 km
Semi-major
6,843.7 km
B*
4.6936e-4
RAAN
319.7627°
Arg perigee
147.0961°
Mean anomaly
213.0311°
Rev number
3,635

§ Raw data

STARLINK-366131 67578U 26016T   26261.13769428  .00015100  00000+0  46936-3 0  99922 67578  97.2855 319.7627 0000476 147.0961 213.0311 15.33427895 36356

JSON: /api/v1/satellites/67578 · /tle

For live sub-satellite position, see the globe view (requires WebGL).

§ Visibility from observer

Set your observer location to see the next 7 days of passes ≥ 10°. The values pass through the URL so the page stays shareable.

No JS? Fill the form by hand. The geolocation button needs JavaScript.